Hourly Data Report for May 16, 2003

SHERBROOKE A
QUEBEC

45°26'00.000" N
71°41'00.000" W
241.40 m
7028124
71610
YSC

Download Data

Hourly Data (May 2003)
Hourly Data Report for May 16, 2003
TIME
LST
Temp Definition
°C
Dew Point Definition
°C
Rel Hum Definition
%
Precip. Amount Definition
mm

Wind Dir Definition
10's deg

Wind Spd Definition
km/h
Visibility Definition
km
Stn Press Definition
kPa
Hmdx Definition


Wind Chill Definition


Weather Definition


00:00 7.2 4.7 84   11 9 15.0 99.89      
01:00 7.0 4.5 84   7 7 15.0 99.93      
02:00 5.0 3.7 91     0 15.0 99.98      
03:00 3.7 2.4 91     0 15.0 100.01      
04:00 3.7 2.3 91   7 4 15.0 100.03      
05:00 4.0 2.9 93   6 6 15.0 100.09      
06:00 7.5 4.6 82   8 7 15.0 100.16      
07:00 10.1 5.1 71   7 7 24.1 100.22     Mainly Clear
08:00 11.7 4.0 59   12 11 24.1 100.20     Mainly Clear
09:00 13.5 3.2 50   15 11 24.1 100.19     Mostly Cloudy
10:00 14.5 2.0 43   8 20 24.1 100.17     Mainly Clear
11:00 15.4 2.9 43   14 15 24.1 100.15     Mainly Clear
12:00 16.9 2.8 39   9 9 24.1 100.08     Mainly Clear
13:00 18.3 3.2 37   12 15 24.1 100.05     Mainly Clear
14:00 18.4 0.3 30   13 6 24.1 100.00     Mainly Clear
15:00 19.5 1.5 30   13 11 24.1 99.98     Mainly Clear
16:00 19.0 -1.5 25   12 11 24.1 99.98     Mainly Clear
17:00 18.7 -2.1 24   15 15 15.0 99.96      
18:00 17.7 -2.9 24   14 13 15.0 99.97      
19:00 14.4 -1.3 34   14 9 15.0 99.99      
20:00 11.4 -2.5 38   12 9 15.0 100.03      
21:00 9.9 -2.2 43   13 9 15.0 100.06      
22:00 7.9 -1.3 52   9 7 15.0 100.07      
23:00 5.6 -1.9 58   12 13 15.0 100.08      

Notes on Data Quality.

Legend

  • E = Estimated
  • M = Missing
  • NA = Not Available*
  • [empty] = Indicates an unobserved value
Date modified: